Time,TemperatureF,DewpointF,PressureIn,WindDirection,WindDirectionDegrees,WindSpeedMPH,WindSpeedGustMPH,Humidity,HourlyPrecipIn,Conditions,Clouds,dailyrainin,SoftwareType,DateUTC
2013-01-19 00:04:00,30.9,12.5,30.40,SSW,200,6.0,10.0,46,0.00,,,0.00,Wunderground PWS Mod,2013-01-19 05:04:00,
2013-01-19 00:14:00,31.2,13.3,30.40,SSW,203,7.0,11.0,47,0.00,,,0.00,Wunderground PWS Mod,2013-01-19 05:14:00,
2013-01-19 00:16:00,31.2,13.3,30.39,South,191,5.0,11.0,47,0.00,,,0.00,Wunderground PWS Mod,2013-01-19 05:16:00,
2013-01-19 00:18:00,31.2,13.8,30.42,SSW,203,6.0,14.0,48,0.00,,,0.00,Wunderground PWS Mod,2013-01-19 05:18:00,
2013-01-19 00:24:00,31.4,13.9,30.39,SSW,194,6.0,11.0,48,0.00,,,0.00,Wunderground PWS Mod,2013-01-19 05:24:00,
2013-01-19 00:34:00,31.4,13.9,30.39,SSW,212,5.0,11.0,48,0.00,,,0.00,Wunderground PWS Mod,2013-01-19 05:34:00,
2013-01-19 00:44:00,31.3,14.3,30.39,SSW,199,8.0,14.0,49,0.00,,,0.00,Wunderground PWS Mod,2013-01-19 05:44:00,
2013-01-19 00:48:00,31.4,15.3,30.40,SSW,203,6.0,14.0,51,0.00,,,0.00,Wunderground PWS Mod,2013-01-19 05:48:00,
2013-01-19 00:54:00,31.4,15.3,30.38,SSW,202,5.0,14.0,51,0.00,,,0.00,Wunderground PWS Mod,2013-01-19 05:54:00,
2013-01-19 01:04:00,31.4,15.8,30.38,SW,219,6.0,14.0,52,0.00,,,0.00,Wunderground PWS Mod,2013-01-19 06:04:00,
2013-01-19 01:10:00,31.4,15.3,30.40,SSW,203,6.0,14.0,51,0.00,,,0.00,Wunderground PWS Mod,2013-01-19 06:10:00,
2013-01-19 01:12:00,31.4,15.3,30.40,SSW,203,6.0,14.0,51,0.00,,,0.00,Wunderground PWS Mod,2013-01-19 06:12:00,
2013-01-19 01:14:00,31.4,15.8,30.37,SSW,198,5.0,14.0,52,0.00,,,0.00,Wunderground PWS Mod,2013-01-19 06:14:00,
2013-01-19 01:24:00,31.4,16.2,30.38,SSW,200,5.0,14.0,53,0.00,,,0.00,Wunderground PWS Mod,2013-01-19 06:24:00,
2013-01-19 01:34:00,31.3,16.6,30.38,SW,218,3.0,14.0,54,0.00,,,0.00,Wunderground PWS Mod,2013-01-19 06:34:00,
2013-01-19 01:44:00,31.2,16.9,30.38,SW,234,4.0,14.0,55,0.00,,,0.00,Wunderground PWS Mod,2013-01-19 06:44:00,
2013-01-19 01:46:00,31.4,16.7,30.40,SSW,203,5.0,12.0,54,0.00,,,0.00,Wunderground PWS Mod,2013-01-19 06:46:00,
2013-01-19 01:54:00,31.2,17.3,30.37,WSW,240,2.0,14.0,56,0.00,,,0.00,Wunderground PWS Mod,2013-01-19 06:54:00,
2013-01-19 02:04:00,31.2,17.3,30.37,WSW,245,1.0,12.0,56,0.00,,,0.00,Wunderground PWS Mod,2013-01-19 07:04:00,
2013-01-19 02:14:00,31.1,17.6,30.38,SW,225,4.0,12.0,57,0.00,,,0.00,Wunderground PWS Mod,2013-01-19 07:14:00,
2013-01-19 02:18:00,31.1,18.0,30.40,SSW,203,4.0,9.0,58,0.00,,,0.00,Wunderground PWS Mod,2013-01-19 07:18:00,
2013-01-19 02:24:00,31.1,18.0,30.38,SW,226,4.0,12.0,58,0.00,,,0.00,Wunderground PWS Mod,2013-01-19 07:24:00,
2013-01-19 02:34:00,31.1,18.0,30.37,SW,221,3.0,12.0,58,0.00,,,0.00,Wunderground PWS Mod,2013-01-19 07:34:00,
2013-01-19 02:44:00,31.1,18.4,30.38,SW,221,4.0,12.0,59,0.00,,,0.00,Wunderground PWS Mod,2013-01-19 07:44:00,
2013-01-19 02:50:00,31.0,18.7,30.40,SSW,203,4.0,8.0,60,0.00,,,0.00,Wunderground PWS Mod,2013-01-19 07:50:00,
2013-01-19 02:52:00,31.0,18.7,30.40,SSW,203,4.0,8.0,60,0.00,,,0.00,Wunderground PWS Mod,2013-01-19 07:52:00,
2013-01-19 02:54:00,31.0,18.7,30.38,SSW,207,4.0,12.0,60,0.00,,,0.00,Wunderground PWS Mod,2013-01-19 07:54:00,
2013-01-19 03:04:00,30.8,18.5,30.37,SSW,194,3.0,9.0,60,0.00,,,0.00,Wunderground PWS Mod,2013-01-19 08:04:00,
2013-01-19 03:14:00,30.7,18.8,30.36,South,190,5.0,9.0,61,0.00,,,0.00,Wunderground PWS Mod,2013-01-19 08:14:00,
2013-01-19 03:18:00,30.7,19.2,30.38,SSW,203,4.0,7.0,62,0.00,,,0.00,Wunderground PWS Mod,2013-01-19 08:18:00,
2013-01-19 03:24:00,30.7,19.2,30.36,SSW,192,4.0,9.0,62,0.00,,,0.00,Wunderground PWS Mod,2013-01-19 08:24:00,
2013-01-19 03:34:00,30.7,19.2,30.36,SSW,195,5.0,9.0,62,0.00,,,0.00,Wunderground PWS Mod,2013-01-19 08:34:00,
2013-01-19 03:44:00,30.8,19.7,30.35,SW,214,3.0,9.0,63,0.00,,,0.00,Wunderground PWS Mod,2013-01-19 08:44:00,
2013-01-19 03:48:00,30.8,19.7,30.37,SSW,203,4.0,10.0,63,0.00,,,0.00,Wunderground PWS Mod,2013-01-19 08:48:00,
2013-01-19 03:54:00,30.9,19.8,30.35,SSW,201,4.0,9.0,63,0.00,,,0.00,Wunderground PWS Mod,2013-01-19 08:54:00,
2013-01-19 04:04:00,31.0,19.9,30.34,SSW,213,8.0,8.0,63,0.00,,,0.00,Wunderground PWS Mod,2013-01-19 09:04:00,
2013-01-19 04:14:00,31.3,20.2,30.34,SW,218,6.0,10.0,63,0.00,,,0.00,Wunderground PWS Mod,2013-01-19 09:14:00,
2013-01-19 04:16:00,30.8,19.7,30.37,SSW,203,4.0,10.0,63,0.00,,,0.00,Wunderground PWS Mod,2013-01-19 09:16:00,
2013-01-19 04:24:00,31.6,20.4,30.34,SW,226,3.0,10.0,63,0.00,,,0.00,Wunderground PWS Mod,2013-01-19 09:24:00,
2013-01-19 04:34:00,31.8,20.6,30.33,SSW,201,4.0,10.0,63,0.00,,,0.00,Wunderground PWS Mod,2013-01-19 09:34:00,
2013-01-19 04:44:00,32.1,20.5,30.33,SW,236,4.0,12.0,62,0.00,,,0.00,Wunderground PWS Mod,2013-01-19 09:44:00,
2013-01-19 04:46:00,31.4,20.2,30.36,SW,225,4.0,12.0,63,0.00,,,0.00,Wunderground PWS Mod,2013-01-19 09:46:00,
2013-01-19 04:54:00,32.4,20.4,30.33,WSW,244,4.0,12.0,61,0.00,,,0.00,Wunderground PWS Mod,2013-01-19 09:54:00,
2013-01-19 05:04:00,32.6,20.6,30.33,SSW,213,6.0,12.0,61,0.00,,,0.00,Wunderground PWS Mod,2013-01-19 10:04:00,
2013-01-19 05:14:00,32.6,20.6,30.33,WSW,255,2.0,15.0,61,0.00,,,0.00,Wunderground PWS Mod,2013-01-19 10:14:00,
2013-01-19 05:16:00,32.2,20.2,30.36,SW,225,6.0,15.0,61,0.00,,,0.00,Wunderground PWS Mod,2013-01-19 10:16:00,
2013-01-19 05:24:00,32.7,20.3,30.33,WSW,243,4.0,15.0,60,0.00,,,0.00,Wunderground PWS Mod,2013-01-19 10:24:00,
2013-01-19 05:34:00,32.9,20.5,30.32,SSW,208,8.0,15.0,60,0.00,,,0.00,Wunderground PWS Mod,2013-01-19 10:34:00,
2013-01-19 05:44:00,33.1,20.3,30.32,West,272,5.0,16.0,59,0.00,,,0.00,Wunderground PWS Mod,2013-01-19 10:44:00,
2013-01-19 05:48:00,33.1,20.3,30.35,SW,225,8.0,19.0,59,0.00,,,0.00,Wunderground PWS Mod,2013-01-19 10:48:00,
2013-01-19 05:54:00,33.1,20.3,30.32,WSW,249,11.0,16.0,59,0.00,,,0.00,Wunderground PWS Mod,2013-01-19 10:54:00,
2013-01-19 06:04:00,33.2,20.4,30.32,SW,220,6.0,14.0,59,0.00,,,0.00,Wunderground PWS Mod,2013-01-19 11:04:00,
2013-01-19 06:14:00,33.1,20.3,30.32,SW,221,7.0,19.0,59,0.00,,,0.00,Wunderground PWS Mod,2013-01-19 11:14:00,
2013-01-19 07:48:00,34.1,20.9,30.31,WSW,252,7.0,17.0,58,0.00,,,0.00,Wunderground PWS Mod,2013-01-19 12:48:00,
2013-01-19 07:54:00,34.2,20.9,30.31,WSW,237,6.0,17.0,58,0.00,,,0.00,Wunderground PWS Mod,2013-01-19 12:54:00,
2013-01-19 07:58:00,34.3,21.0,30.31,SW,234,5.0,17.0,58,0.00,,,0.00,Wunderground PWS Mod,2013-01-19 12:58:00,
2013-01-19 08:04:00,34.4,21.1,30.31,SW,230,7.0,15.0,58,0.00,,,0.00,Wunderground PWS Mod,2013-01-19 13:04:00,
2013-01-19 08:14:00,34.7,21.0,30.31,SW,230,12.0,15.0,57,0.00,,,0.00,Wunderground PWS Mod,2013-01-19 13:14:00,
2013-01-19 08:18:00,34.8,20.7,30.33,SW,225,9.0,20.0,56,0.00,,,0.00,Wunderground PWS Mod,2013-01-19 13:18:00,
2013-01-19 08:24:00,35.0,21.3,30.31,SW,236,9.0,16.0,57,0.00,,,0.00,Wunderground PWS Mod,2013-01-19 13:24:00,
2013-01-19 08:34:00,35.3,21.2,30.31,SW,228,13.0,16.0,56,0.00,,,0.00,Wunderground PWS Mod,2013-01-19 13:34:00,
2013-01-19 08:44:00,35.7,21.1,30.31,SW,226,7.0,20.0,55,0.00,,,0.00,Wunderground PWS Mod,2013-01-19 13:44:00,
2013-01-19 08:48:00,35.8,20.8,30.33,SW,225,9.0,19.0,54,0.00,,,0.00,Wunderground PWS Mod,2013-01-19 13:48:00,
2013-01-19 08:54:00,36.1,21.5,30.31,WSW,254,8.0,20.0,55,0.00,,,0.00,Wunderground PWS Mod,2013-01-19 13:54:00,
2013-01-19 09:04:00,36.6,21.5,30.31,WSW,252,14.0,20.0,54,0.00,,,0.00,Wunderground PWS Mod,2013-01-19 14:04:00,
2013-01-19 09:14:00,37.0,21.4,30.31,West,262,15.0,20.0,53,0.00,,,0.00,Wunderground PWS Mod,2013-01-19 14:14:00,
2013-01-19 09:18:00,37.2,21.2,30.34,WSW,248,8.0,16.0,52,0.00,,,0.00,Wunderground PWS Mod,2013-01-19 14:18:00,
2013-01-19 09:24:00,37.4,21.4,30.31,WSW,250,8.0,20.0,52,0.00,,,0.00,Wunderground PWS Mod,2013-01-19 14:24:00,
2013-01-19 09:34:00,38.0,21.5,30.31,SW,224,9.0,20.0,51,0.00,,,0.00,Wunderground PWS Mod,2013-01-19 14:34:00,
2013-01-19 09:44:00,38.4,21.8,30.31,WSW,241,9.0,20.0,51,0.00,,,0.00,Wunderground PWS Mod,2013-01-19 14:44:00,
2013-01-19 09:46:00,37.2,21.2,30.34,WSW,248,8.0,16.0,52,0.00,,,0.00,Wunderground PWS Mod,2013-01-19 14:46:00,
2013-01-19 09:54:00,38.9,21.8,30.31,SSW,198,5.0,20.0,50,0.00,,,0.00,Wunderground PWS Mod,2013-01-19 14:54:00,
2013-01-19 10:04:00,39.4,22.3,30.30,SW,236,6.0,16.0,50,0.00,,,0.00,Wunderground PWS Mod,2013-01-19 15:04:00,
2013-01-19 10:14:00,40.1,22.4,30.30,West,262,5.0,20.0,49,0.00,,,0.00,Wunderground PWS Mod,2013-01-19 15:14:00,
2013-01-19 10:20:00,40.3,21.6,30.32,WSW,248,8.0,17.0,47,0.00,,,0.00,Wunderground PWS Mod,2013-01-19 15:20:00,
2013-01-19 10:22:00,40.3,21.6,30.32,WSW,248,8.0,17.0,47,0.00,,,0.00,Wunderground PWS Mod,2013-01-19 15:22:00,
2013-01-19 10:24:00,40.6,21.9,30.30,WSW,249,9.0,20.0,47,0.00,,,0.00,Wunderground PWS Mod,2013-01-19 15:24:00,
2013-01-19 10:34:00,41.3,22.6,30.29,SSW,213,10.0,20.0,47,0.00,,,0.00,Wunderground PWS Mod,2013-01-19 15:34:00,
2013-01-19 10:44:00,41.8,23.0,30.28,West,260,9.0,20.0,47,0.00,,,0.00,Wunderground PWS Mod,2013-01-19 15:44:00,
2013-01-19 10:48:00,42.0,22.2,30.29,SW,225,8.0,17.0,45,0.00,,,0.00,Wunderground PWS Mod,2013-01-19 15:48:00,
2013-01-19 10:54:00,42.4,22.5,30.28,WNW,291,8.0,20.0,45,0.00,,,0.00,Wunderground PWS Mod,2013-01-19 15:54:00,
2013-01-19 11:04:00,43.2,23.3,30.27,WSW,247,5.0,17.0,45,0.00,,,0.00,Wunderground PWS Mod,2013-01-19 16:04:00,
2013-01-19 11:14:00,43.7,23.2,30.26,SW,227,9.0,17.0,44,0.00,,,0.00,Wunderground PWS Mod,2013-01-19 16:14:00,
2013-01-19 11:16:00,42.0,22.2,30.29,SW,225,8.0,17.0,45,0.00,,,0.00,Wunderground PWS Mod,2013-01-19 16:16:00,
2013-01-19 11:24:00,44.4,23.3,30.25,West,267,5.0,17.0,43,0.00,,,0.00,Wunderground PWS Mod,2013-01-19 16:24:00,
2013-01-19 11:34:00,45.5,23.7,30.24,SSW,203,6.0,17.0,42,0.00,,,0.00,Wunderground PWS Mod,2013-01-19 16:34:00,
2013-01-19 11:44:00,46.1,24.3,30.23,WSW,255,3.0,17.0,42,0.00,,,0.00,Wunderground PWS Mod,2013-01-19 16:44:00,
2013-01-19 11:46:00,44.1,23.0,30.27,SW,225,7.0,14.0,43,0.00,,,0.00,Wunderground PWS Mod,2013-01-19 16:46:00,
2013-01-19 11:54:00,46.6,23.5,30.22,SW,231,6.0,17.0,40,0.00,,,0.00,Wunderground PWS Mod,2013-01-19 16:54:00,
2013-01-19 12:04:00,47.2,24.1,30.22,SW,226,7.0,14.0,40,0.00,,,0.00,Wunderground PWS Mod,2013-01-19 17:04:00,
2013-01-19 12:16:00,47.7,23.9,30.20,SW,216,7.0,14.0,39,0.00,,,0.00,Wunderground PWS Mod,2013-01-19 17:16:00,
2013-01-19 12:18:00,47.7,23.3,30.22,SW,225,7.0,12.0,38,0.00,,,0.00,Wunderground PWS Mod,2013-01-19 17:18:00,
2013-01-19 12:24:00,47.9,24.1,30.20,SW,230,12.0,14.0,39,0.00,,,0.00,Wunderground PWS Mod,2013-01-19 17:24:00,
2013-01-19 12:34:00,48.5,24.0,30.19,WSW,241,6.0,14.0,38,0.00,,,0.00,Wunderground PWS Mod,2013-01-19 17:34:00,
2013-01-19 12:44:00,49.1,23.9,30.18,WSW,252,7.0,14.0,37,0.00,,,0.00,Wunderground PWS Mod,2013-01-19 17:44:00,
2013-01-19 12:48:00,49.3,22.8,30.20,WSW,248,6.0,13.0,35,0.00,,,0.00,Wunderground PWS Mod,2013-01-19 17:48:00,
2013-01-19 12:54:00,49.7,24.5,30.18,SW,229,7.0,14.0,37,0.00,,,0.00,Wunderground PWS Mod,2013-01-19 17:54:00,
2013-01-19 13:04:00,50.1,23.5,30.17,WSW,252,3.0,12.0,35,0.00,,,0.00,Wunderground PWS Mod,2013-01-19 18:04:00,
2013-01-19 13:10:00,49.3,22.8,30.20,WSW,248,6.0,13.0,35,0.00,,,0.00,Wunderground PWS Mod,2013-01-19 18:10:00,
2013-01-19 13:12:00,49.3,22.8,30.20,WSW,248,6.0,13.0,35,0.00,,,0.00,Wunderground PWS Mod,2013-01-19 18:12:00,
2013-01-19 13:14:00,50.6,23.2,30.17,SSW,209,7.0,13.0,34,0.00,,,0.00,Wunderground PWS Mod,2013-01-19 18:14:00,
2013-01-19 13:24:00,51.3,23.8,30.16,SW,232,6.0,13.0,34,0.00,,,0.00,Wunderground PWS Mod,2013-01-19 18:24:00,
2013-01-19 13:34:00,51.6,23.4,30.15,WSW,255,7.0,13.0,33,0.00,,,0.00,Wunderground PWS Mod,2013-01-19 18:34:00,
2013-01-19 13:44:00,52.3,24.0,30.15,SW,224,3.0,15.0,33,0.00,,,0.00,Wunderground PWS Mod,2013-01-19 18:44:00,
2013-01-19 13:54:00,52.4,24.1,30.14,WSW,237,5.0,15.0,33,0.00,,,0.00,Wunderground PWS Mod,2013-01-19 18:54:00,
2013-01-19 14:04:00,52.9,24.5,30.13,SW,220,5.0,15.0,33,0.00,,,0.00,Wunderground PWS Mod,2013-01-19 19:04:00,
2013-01-19 14:16:00,53.1,24.0,30.13,SSW,195,8.0,16.0,32,0.00,,,0.00,Wunderground PWS Mod,2013-01-19 19:16:00,
2013-01-19 14:20:00,53.2,24.1,30.14,SSW,203,8.0,17.0,32,0.00,,,0.00,Wunderground PWS Mod,2013-01-19 19:20:00,
2013-01-19 14:22:00,53.2,24.1,30.14,SSW,203,8.0,17.0,32,0.00,,,0.00,Wunderground PWS Mod,2013-01-19 19:22:00,
2013-01-19 14:24:00,53.2,24.1,30.14,SSW,203,8.0,17.0,32,0.00,,,0.00,Wunderground PWS Mod,2013-01-19 19:24:00,
2013-01-19 14:26:00,53.3,24.2,30.12,SW,230,8.0,16.0,32,0.00,,,0.00,Wunderground PWS Mod,2013-01-19 19:26:00,
2013-01-19 14:38:00,53.7,23.7,30.11,SSW,196,7.0,16.0,31,0.00,,,0.00,Wunderground PWS Mod,2013-01-19 19:38:00,
2013-01-19 14:44:00,53.6,22.9,30.12,SSW,199,12.0,17.0,30,0.00,,,0.00,Wunderground PWS Mod,2013-01-19 19:44:00,
2013-01-19 14:46:00,53.2,24.1,30.14,SSW,203,8.0,17.0,32,0.00,,,0.00,Wunderground PWS Mod,2013-01-19 19:46:00,
2013-01-19 14:54:00,53.9,23.9,30.11,SW,230,7.0,17.0,31,0.00,,,0.00,Wunderground PWS Mod,2013-01-19 19:54:00,
2013-01-19 15:04:00,53.9,23.1,30.10,SW,226,8.0,17.0,30,0.00,,,0.00,Wunderground PWS Mod,2013-01-19 20:04:00,
2013-01-19 15:10:00,53.7,23.0,30.13,SW,225,8.0,17.0,30,0.00,,,0.00,Wunderground PWS Mod,2013-01-19 20:10:00,
2013-01-19 15:12:00,53.7,23.0,30.13,SW,225,8.0,17.0,30,0.00,,,0.00,Wunderground PWS Mod,2013-01-19 20:12:00,
2013-01-19 15:14:00,54.2,22.6,30.10,SW,229,11.0,17.0,29,0.00,,,0.00,Wunderground PWS Mod,2013-01-19 20:14:00,
2013-01-19 15:24:00,54.2,22.6,30.09,SW,230,10.0,17.0,29,0.00,,,0.00,Wunderground PWS Mod,2013-01-19 20:24:00,
2013-01-19 15:34:00,54.6,22.9,30.09,West,269,8.0,17.0,29,0.00,,,0.00,Wunderground PWS Mod,2013-01-19 20:34:00,
2013-01-19 15:44:00,54.8,23.1,30.08,SW,223,13.0,17.0,29,0.00,,,0.00,Wunderground PWS Mod,2013-01-19 20:44:00,
2013-01-19 15:48:00,54.6,22.9,30.10,SW,225,7.0,15.0,29,0.00,,,0.00,Wunderground PWS Mod,2013-01-19 20:48:00,
2013-01-19 15:54:00,54.5,22.0,30.08,SSW,211,4.0,17.0,28,0.00,,,0.00,Wunderground PWS Mod,2013-01-19 20:54:00,
2013-01-19 16:04:00,54.6,22.9,30.07,SSW,203,5.0,14.0,29,0.00,,,0.00,Wunderground PWS Mod,2013-01-19 21:04:00,
2013-01-19 16:10:00,54.6,22.9,30.10,SW,225,7.0,15.0,29,0.00,,,0.00,Wunderground PWS Mod,2013-01-19 21:10:00,
2013-01-19 16:14:00,54.4,24.4,30.07,SSW,204,8.0,15.0,31,0.00,,,0.00,Wunderground PWS Mod,2013-01-19 21:14:00,
2013-01-19 16:24:00,54.1,24.1,30.07,SSW,197,5.0,15.0,31,0.00,,,0.00,Wunderground PWS Mod,2013-01-19 21:24:00,
2013-01-19 16:34:00,53.8,23.8,30.07,SW,221,7.0,15.0,31,0.00,,,0.00,Wunderground PWS Mod,2013-01-19 21:34:00,
2013-01-19 16:44:00,53.3,23.4,30.07,SW,214,7.0,15.0,31,0.00,,,0.00,Wunderground PWS Mod,2013-01-19 21:44:00,
2013-01-19 16:48:00,53.2,24.1,30.09,SW,225,7.0,16.0,32,0.00,,,0.00,Wunderground PWS Mod,2013-01-19 21:48:00,
2013-01-19 16:54:00,52.9,23.0,30.06,SW,226,7.0,15.0,31,0.00,,,0.00,Wunderground PWS Mod,2013-01-19 21:54:00,
2013-01-19 17:14:00,51.9,22.9,30.06,SW,215,7.0,16.0,32,0.00,,,0.00,Wunderground PWS Mod,2013-01-19 22:14:00,
2013-01-19 17:18:00,51.7,23.5,30.08,SW,225,7.0,14.0,33,0.00,,,0.00,Wunderground PWS Mod,2013-01-19 22:18:00,
2013-01-19 17:24:00,51.4,22.5,30.06,SSW,202,8.0,16.0,32,0.00,,,0.00,Wunderground PWS Mod,2013-01-19 22:24:00,
2013-01-19 17:38:00,50.8,22.7,30.06,SSW,192,7.0,16.0,33,0.00,,,0.00,Wunderground PWS Mod,2013-01-19 22:38:00,
2013-01-19 17:44:00,50.5,22.4,30.06,SSW,199,4.0,16.0,33,0.00,,,0.00,Wunderground PWS Mod,2013-01-19 22:44:00,
2013-01-19 17:48:00,50.4,23.7,30.08,SSW,203,5.0,13.0,35,0.00,,,0.00,Wunderground PWS Mod,2013-01-19 22:48:00,
2013-01-19 17:54:00,50.0,22.7,30.06,SSW,196,4.0,16.0,34,0.00,,,0.00,Wunderground PWS Mod,2013-01-19 22:54:00,
2013-01-19 18:04:00,49.5,22.9,30.06,SW,217,5.0,14.0,35,0.00,,,0.00,Wunderground PWS Mod,2013-01-19 23:04:00,
2013-01-19 18:14:00,49.3,22.8,30.05,SW,228,7.0,14.0,35,0.00,,,0.00,Wunderground PWS Mod,2013-01-19 23:14:00,
2013-01-19 18:20:00,49.2,22.7,30.08,SSW,203,5.0,10.0,35,0.00,,,0.00,Wunderground PWS Mod,2013-01-19 23:20:00,
2013-01-19 18:22:00,49.2,22.7,30.08,SSW,203,5.0,10.0,35,0.00,,,0.00,Wunderground PWS Mod,2013-01-19 23:22:00,
2013-01-19 18:24:00,49.0,22.5,30.05,SW,227,7.0,14.0,35,0.00,,,0.00,Wunderground PWS Mod,2013-01-19 23:24:00,
2013-01-19 18:36:00,48.9,22.4,30.05,SSW,197,7.0,14.0,35,0.00,,,0.00,Wunderground PWS Mod,2013-01-19 23:36:00,
2013-01-19 18:44:00,48.8,23.0,30.05,SW,230,5.0,14.0,36,0.00,,,0.00,Wunderground PWS Mod,2013-01-19 23:44:00,
2013-01-19 18:46:00,49.2,22.7,30.08,SSW,203,5.0,10.0,35,0.00,,,0.00,Wunderground PWS Mod,2013-01-19 23:46:00,
2013-01-19 18:56:00,48.7,22.9,30.05,SW,215,11.0,14.0,36,0.00,,,0.00,Wunderground PWS Mod,2013-01-19 23:56:00,
2013-01-19 19:04:00,48.5,22.7,30.05,SSW,203,4.0,10.0,36,0.00,,,0.00,Wunderground PWS Mod,2013-01-20 00:04:00,
2013-01-19 19:14:00,48.2,22.5,30.05,SSW,212,4.0,13.0,36,0.00,,,0.00,Wunderground PWS Mod,2013-01-20 00:14:00,
2013-01-19 19:20:00,48.1,23.0,30.07,SW,225,6.0,14.0,37,0.00,,,0.00,Wunderground PWS Mod,2013-01-20 00:20:00,
2013-01-19 19:22:00,48.1,23.0,30.07,SW,225,6.0,14.0,37,0.00,,,0.00,Wunderground PWS Mod,2013-01-20 00:22:00,
2013-01-19 19:24:00,47.8,22.8,30.05,SSW,211,5.0,13.0,37,0.00,,,0.00,Wunderground PWS Mod,2013-01-20 00:24:00,
2013-01-19 19:34:00,47.6,22.6,30.05,SW,228,6.0,13.0,37,0.00,,,0.00,Wunderground PWS Mod,2013-01-20 00:34:00,
2013-01-19 19:44:00,47.7,22.7,30.05,SW,223,8.0,14.0,37,0.00,,,0.00,Wunderground PWS Mod,2013-01-20 00:44:00,
2013-01-19 19:54:00,47.4,23.0,30.05,SW,225,13.0,14.0,38,0.00,,,0.00,Wunderground PWS Mod,2013-01-20 00:54:00,
2013-01-19 20:04:00,47.4,23.0,30.04,SW,215,8.0,14.0,38,0.00,,,0.00,Wunderground PWS Mod,2013-01-20 01:04:00,
2013-01-19 20:14:00,47.2,22.9,30.03,SW,236,4.0,17.0,38,0.00,,,0.00,Wunderground PWS Mod,2013-01-20 01:14:00,
2013-01-19 20:26:00,47.1,22.8,30.03,SW,234,8.0,17.0,38,0.00,,,0.00,Wunderground PWS Mod,2013-01-20 01:26:00,
2013-01-19 20:34:00,47.0,22.7,30.03,SW,222,7.0,17.0,38,0.00,,,0.00,Wunderground PWS Mod,2013-01-20 01:34:00,
2013-01-19 20:45:00,46.9,22.6,30.03,SW,219,8.0,17.0,38,0.00,,,0.00,Wunderground PWS Mod,2013-01-20 01:45:00,
2013-01-19 20:56:00,46.9,23.2,30.02,SW,233,9.0,17.0,39,0.00,,,0.00,Wunderground PWS Mod,2013-01-20 01:56:00,
2013-01-19 21:04:00,46.8,23.1,30.02,SW,233,6.0,17.0,39,0.00,,,0.00,Wunderground PWS Mod,2013-01-20 02:04:00,
2013-01-19 21:14:00,46.7,23.0,30.01,SSW,206,14.0,17.0,39,0.00,,,0.00,Wunderground PWS Mod,2013-01-20 02:14:00,
2013-01-19 21:18:00,46.7,23.6,30.03,SW,225,8.0,16.0,40,0.00,,,0.00,Wunderground PWS Mod,2013-01-20 02:18:00,
2013-01-19 21:24:00,46.6,23.5,30.01,WSW,240,9.0,17.0,40,0.00,,,0.00,Wunderground PWS Mod,2013-01-20 02:24:00,
2013-01-19 21:34:00,46.6,23.5,30.00,SW,225,17.0,17.0,40,0.00,,,0.00,Wunderground PWS Mod,2013-01-20 02:34:00,
2013-01-19 21:44:00,46.5,23.4,30.00,SSW,205,9.0,17.0,40,0.00,,,0.00,Wunderground PWS Mod,2013-01-20 02:44:00,
2013-01-19 21:46:00,46.7,23.6,30.03,SW,225,8.0,16.0,40,0.00,,,0.00,Wunderground PWS Mod,2013-01-20 02:46:00,
2013-01-19 21:54:00,46.4,23.9,30.00,SW,227,10.0,19.0,41,0.00,,,0.00,Wunderground PWS Mod,2013-01-20 02:54:00,
2013-01-19 22:04:00,46.1,24.3,30.00,WSW,250,7.0,16.0,42,0.00,,,0.00,Wunderground PWS Mod,2013-01-20 03:04:00,
2013-01-19 22:14:00,45.9,24.1,30.00,West,269,5.0,19.0,42,0.00,,,0.00,Wunderground PWS Mod,2013-01-20 03:14:00,
2013-01-19 22:16:00,46.5,24.0,30.03,SW,225,9.0,19.0,41,0.00,,,0.00,Wunderground PWS Mod,2013-01-20 03:16:00,
2013-01-19 22:24:00,45.9,24.1,30.00,West,273,8.0,19.0,42,0.00,,,0.00,Wunderground PWS Mod,2013-01-20 03:24:00,
2013-01-19 22:38:00,45.9,24.6,29.99,WSW,255,13.0,19.0,43,0.00,,,0.00,Wunderground PWS Mod,2013-01-20 03:38:00,
2013-01-19 22:44:00,45.8,24.5,29.99,WSW,244,4.0,19.0,43,0.00,,,0.00,Wunderground PWS Mod,2013-01-20 03:44:00,
2013-01-19 22:46:00,46.0,24.7,30.02,WSW,248,7.0,16.0,43,0.00,,,0.00,Wunderground PWS Mod,2013-01-20 03:46:00,
2013-01-19 22:54:00,45.7,24.5,29.97,WSW,241,5.0,19.0,43,0.00,,,0.00,Wunderground PWS Mod,2013-01-20 03:54:00,
2013-01-19 23:14:00,45.4,24.7,29.95,SW,232,9.0,20.0,44,0.00,,,0.00,Wunderground PWS Mod,2013-01-20 04:14:00,
2013-01-19 23:16:00,45.8,24.5,29.99,WSW,248,8.0,20.0,43,0.00,,,0.00,Wunderground PWS Mod,2013-01-20 04:16:00,
2013-01-19 23:24:00,45.4,24.7,29.95,SW,214,5.0,20.0,44,0.00,,,0.00,Wunderground PWS Mod,2013-01-20 04:24:00,
2013-01-19 23:34:00,45.2,24.6,29.94,WSW,238,6.0,20.0,44,0.00,,,0.00,Wunderground PWS Mod,2013-01-20 04:34:00,
2013-01-19 23:44:00,45.1,24.5,29.94,WSW,249,5.0,20.0,44,0.00,,,0.00,Wunderground PWS Mod,2013-01-20 04:44:00,
2013-01-19 23:46:00,45.4,24.7,29.98,WSW,248,8.0,20.0,44,0.00,,,0.00,Wunderground PWS Mod,2013-01-20 04:46:00,
2013-01-19 23:54:00,45.2,24.6,29.93,SW,235,7.0,20.0,44,0.00,,,0.00,Wunderground PWS Mod,2013-01-20 04:54:00,